Location: Cisewo
(53.3833°N, 14.9000°E)
Time: 04:44:00
(UTC+00:00)

USA 229 - Visible Passes

Search period start: 29 July 2021 00:00
Search period end: 08 August 2021 00:00
Orbit: 956 x 1256 km, 63.5° (Epoch: 25 July)

Date Brightness Start Highest point End Pass type
(mag) Time Alt. Az. Time Alt. Az. Time Alt. Az.
29 Jul 5.7 00:57:10 10° W 00:57:50 10° W 00:58:30 10° WSW visible
29 Jul 4.4 20:25:43 10° NW 20:32:43 57° NNE 20:40:12 10° ESE visible
29 Jul 4.1 22:16:48 10° NW 22:23:54 59° SW 22:28:23 26° SSE visible
30 Jul 5.4 00:09:18 10° WNW 00:13:39 17° WSW 00:15:47 15° SW visible
30 Jul 4.6 19:40:48 10° NW 19:47:37 48° NNE 19:54:53 10° E visible
30 Jul 3.9 21:31:55 10° NW 21:39:09 79° SW 21:44:35 21° SE visible
30 Jul 5.1 23:23:37 10° WNW 23:29:19 25° WSW 23:31:59 21° SW visible
31 Jul 4.0 20:47:05 10° NW 20:54:18 81° NE 21:00:50 15° SE visible
31 Jul 4.7 22:38:23 10° NW 22:44:52 35° WSW 22:48:14 25° SSW visible
01 Aug 4.2 20:02:15 10° NW 20:09:21 65° NE 20:16:56 10° ESE visible
01 Aug 4.3 21:53:21 10° NW 22:00:19 49° SW 22:04:33 25° S visible
01 Aug 5.7 23:46:52 10° W 23:49:47 13° WSW 23:51:58 11° WSW visible
02 Aug 4.0 21:08:27 10° NW 21:15:37 67° SW 21:20:54 22° SSE visible
02 Aug 5.4 23:00:33 10° WNW 23:05:32 20° WSW 23:08:20 16° SW visible
03 Aug 3.9 20:23:36 10° NW 20:30:50 87° SW 20:37:19 16° SE visible
03 Aug 5.0 22:15:05 10° WNW 22:21:10 29° WSW 22:24:45 20° SSW visible
04 Aug 4.1 19:38:45 10° NW 19:45:56 74° NE 19:53:36 10° SE visible
04 Aug 4.6 21:29:57 10° NW 21:36:40 41° WSW 21:41:12 21° S visible
05 Aug 4.3 20:45:00 10° NW 20:52:03 56° SW 20:57:42 18° SSE visible
05 Aug 5.7 22:37:45 10° WNW 22:41:42 15° WSW 22:45:07 11° SW visible
06 Aug 4.0 20:00:06 10° NW 20:07:20 75° SW 20:14:15 13° SE visible
06 Aug 5.4 21:51:54 10° WNW 21:57:25 23° WSW 22:01:40 14° SSW visible
07 Aug 4.0 19:15:15 10° NW 19:22:30 85° NE 19:30:12 10° SE visible
07 Aug 5.0 21:06:37 10° WNW 21:12:59 33° WSW 21:18:16 15° S visible
